Location: Baller�as
(41.9020°N, 0.1554°W)
Time: 12:13:09
(UTC+00:00)

Cosmos 1833 Rocket - Pass Details

Date: 10 August 2020
Orbit: 831 x 841 km, 71.0° (Epoch: 21 September)

Event Time Altitude Azimuth Distance (km) Brightness Sun altitude
Rises 20:16:47 0° 204° (SSW) 3,361 5.7 -12.3°
Reaches altitude 10° 20:19:12 10° 205° (SSW) 2,432 5.0 -12.7°
Maximum altitude 20:24:48 84° 294° (WNW) 844 2.7 -13.5°
Drops below altitude 10° 20:30:26 10° 23° (NNE) 2,454 5.3 -14.4°
Sets 20:32:54 0° 24° (NNE) 3,394 6.0 -14.7°
